SCP
0 0 0 0 0 0 0 0 0 0 0 0 0 0 0 0 0 0 0 0 0 0 0 0 0 0 0 0 0 0 0 0 0 0 0 0 0 0 -0 -0 -0 -0 -0
0 0 0 0 0 0 0 0 0 0 0 0 0 0 0 0 0 0 0 0 0 0 0 0 0 0 0 0 -0 -0 -0 -0 0 0 0 0 -0 0 0 0 -0 0 -0
0 0 0 0 0 0 0 0 0 0 0 0 0 0 0 0 0 0 0 0 0 0 0 0 0 0 0 0 0 0 0 0 0 0 0 -0 -0 -0 -0 0 0 -0 -0
0 0 0 0 0 0 0 0 0 0 0 0 0 0 0 0 0 0 0 0 0 0 0 0 0 0 0 0 0 0 0 0 0 0 0 0 0 0 -0 -0 -0 -0 -0
0 0 0 0 0 0 0 0 0 0 0 0 0 0 0 0 0 0 0 0 0 0 0 0 0 0 0 0 0 0 0 0 0 0 0 0 0 0 0 0 0 0 0
0 0 0 0 0 0 0 0 0 0 0 0 0 0 0 0 0 0 0 0 0 0 0 0 0 0 0 0 0 0 0 0 0 0 0 0 0 0 0 0 0 0 0
0 0 0 0 0 0 0 0 0 0 0 0 0 0 0 0 0 0 0 0 0 0 0 0 0 0 0 0 0 0 0 0 0 0 0 0 0 0 0 0 0 0 0
0 0 0 0 0 0 0 0 0 0 0 0 0 0 0 0 0 0 0 0 0 0 0 0 0 0 0 0 0 0 0 0 0 0 0 0 0 0 0 0 0 0 0
0 0 0 0 0 0 0 0 0 0 0 0 0 0 0 0 0 0 0 0 0 0 0 0 0 0 0 0 0 0 0 0 0 0 0 0 0 0 0 0 0 0 0
0 0 0 0 0 0 0 0 0 0 0 0 0 0 0 0 0 0 0 0 0 0 0 0 0 0 0 0 0 0 0 0 0 0 0 0 0 0 0 0 0 0 0
0 0 0 0 0 0 0 0 0 0 0 0 0 0 0 0 0 0 0 0 0 0 0 0 0 0 0 0 0 0 0 0 0 0 0 0 0 0 0 0 0 0 0
0 0 0 0 0 0 0 0 0 0 0 0 0 0 0 0 0 0 0 0 0 0 0 0 0 0 0 0 0 0 0 0 0 0 0 0 0 0 0 0 0 0 0
0 0 0 0 0 0 0 0 0 0 0 0 0 0 0 0 0 0 0 0 0 0 0 0 0 0 0 0 0 0 0 0 0 0 0 0 0 0 0 0 0 0 0
0 0 0 0 0 0 0 0 0 0 0 0 0 0 0 0 0 0 0 0 0 0 0 0 0 0 0 0 0 0 0 0 0 0 0 0 0 0 0 0 0 0 0
0 0 0 0 0 0 0 0 0 0 0 0 0 0 0 0 0 0 0 0 0 0 0 0 0 0 0 0 0 0 0 0 0 0 0 0 0 0 0 0 0 0 0
0 0 0 0 0 0 0 0 0 0 0 0 0 0 0 0 0 0 0 0 0 0 0 0 0 0 0 0 0 0 0 0 0 0 0 0 0 0 0 0 0 0 0
0 0 0 0 0 0 0 0 0 0 0 0 0 0 0 0 0 0 0 0 0 0 0 0 0 0 0 0 0 0 0 0 0 0 0 0 0 0 0 0 0 0 0
0 0 0 0 0 0 0 0 0 0 0 0 0 0 0 0 0 0 0 0 0 0 0 0 0 0 0 0 0 0 0 0 0 0 0 0 0 0 0 0 0 0 0
0 0 0 0 0 0 0 0 0 0 0 0 0 0 0 0 0 0 0 0 0 0 0 0 0 0 0 0 0 0 0 0 0 0 0 0 0 0 0 0 0 0 0
0 0 0 0 0 0 0 0 0 0 0 0 0 0 0 0 0 0 0 0 0 0 0 0 0 0 0 0 0 0 0 0 0 0 0 0 0 0 0 0 0 0 0
0 0 0 0 0 0 0 0 0 0 0 0 0 0 0 0 0 0 0 0 0 0 0 0 0 0 0 0 0 0 0 0 0 0 0 0 0 0 0 0 0 0 0
0 0 0 0 0 0 0 0 0 0 0 0 0 0 0 0 0 0 0 0 0 0 0 0 0 0 0 0 0 0 0 0 0 0 0 0 0 0 0 0 0 0 0
0 0 0 0 0 0 0 0 0 0 0 0 0 0 0 0 0 0 0 0 0 0 0 0 0 0 0 0 0 0 0 0 0 0 0 0 0 0 0 0 0 0 0
0 0 0 0 0 0 0 0 0 0 0 0 0 0 0 0 0 0 0 0 0 0 0 0 0 0 0 0 0 0 0 0 0 0 0 0 0 0 0 0 0 0 0
0 0 0 0 0 0 0 0 0 0 0 0 0 0 0 0 0 0 0 0 0 0 0 0 0 0 0 0 0 0 0 0 0 0 0 0 0 0 0 0 0 0 0
0 0 0 0 0 0 0 0 0 0 0 0 0 0 0 0 0 0 0 0 0 0 0 0 0 0 0 0 0 0 0 0 0 0 0 0 0 0 0 0 0 0 0
Wind_Speed_500mb
31 27 21 17 13 9 4 2 7 11 16 21 25 28 32 34 38 40 44 48 52 55 58 62 65 67 68 67 65 62 59 50 63 95 79 73 83 86 94 94 94 95 96
34 31 26 21 16 10 7 6 10 16 21 26 31 33 34 37 40 45 48 52 57 61 65 67 69 70 71 70 66 66 62 55 58 80 96 75 66 70 80 85 93 94 94
41 36 32 25 18 16 15 14 16 19 24 29 33 36 37 41 44 49 54 59 63 66 68 70 72 73 74 72 71 71 68 65 57 67 98 79 70 65 70 69 74 82 90
45 42 36 29 25 23 24 23 23 24 28 33 37 41 43 44 48 52 57 62 63 66 68 71 74 75 75 75 77 74 66 63 59 63 76 84 67 63 62 68 74 61 64
50 47 39 33 32 33 33 33 32 32 35 38 41 44 45 46 49 54 57 61 65 69 71 72 74 77 80 77 70 64 58 62 64 69 77 74 69 58 58 62 72 79 82
55 50 43 41 40 40 42 41 41 40 41 40 42 47 49 49 52 55 59 64 68 72 76 76 75 74 72 71 65 54 53 60 67 71 77 76 69 61 62 64 67 72 79
55 51 49 47 48 49 50 50 49 46 45 43 45 50 53 54 56 58 62 68 72 73 76 76 75 70 67 64 60 54 53 53 55 63 74 72 72 61 62 67 64 64 73
53 53 51 54 55 58 59 57 56 51 48 45 47 53 59 56 58 60 65 69 70 71 71 70 69 67 61 57 59 61 62 64 65 67 67 71 70 69 70 76 77 79 78
52 53 53 54 58 61 62 60 59 55 51 47 49 55 59 58 58 60 64 66 67 68 68 67 62 61 59 57 65 75 76 77 78 83 76 74 72 70 67 71 77 73 79
49 46 46 48 50 56 61 61 59 55 52 50 54 60 59 56 57 60 61 61 65 65 62 60 55 56 59 61 66 75 89 81 70 75 81 80 78 73 65 66 71 79 78
43 45 47 48 47 52 58 59 56 54 54 56 61 61 56 55 56 59 56 55 53 54 52 56 57 56 60 64 65 73 79 77 76 78 77 74 73 72 68 63 64 69 77
47 50 53 56 56 57 56 55 55 55 56 58 62 62 55 54 56 55 52 50 44 47 51 57 57 58 67 66 65 63 60 61 69 69 66 66 55 54 57 57 59 64 72
55 58 59 59 59 58 56 56 56 58 60 63 62 59 56 56 56 50 46 43 43 39 50 51 63 68 67 65 59 59 59 56 53 56 58 58 53 55 59 63 61 60 61
62 62 61 60 59 57 57 58 58 59 61 63 62 58 57 58 56 49 42 42 38 43 56 70 61 61 59 58 54 50 49 47 47 48 49 53 55 56 56 52 53 52 52
58 57 57 57 56 57 58 58 59 60 62 62 59 57 57 57 50 43 34 37 40 50 56 55 55 56 56 53 52 51 50 49 46 45 49 52 53 53 55 50 53 55 61
51 51 53 54 55 56 59 61 62 64 64 62 58 55 52 54 46 41 32 34 43 56 50 50 50 51 51 52 53 54 54 54 52 52 50 49 52 53 55 53 48 53 60
47 49 52 53 55 57 59 62 64 61 60 60 58 57 54 52 49 36 33 31 47 40 42 44 45 45 47 48 50 51 54 55 56 54 51 52 53 53 54 56 52 53 60
45 49 52 55 58 61 62 64 64 64 61 58 56 57 53 51 48 44 31 39 39 37 37 40 42 42 43 45 47 50 52 53 56 57 54 56 58 56 57 57 54 53 55
47 50 54 58 61 63 64 64 64 64 64 64 53 51 53 53 53 45 42 40 39 39 38 38 39 41 42 45 46 46 49 52 55 60 58 61 63 58 57 54 54 55 55
46 51 55 58 60 62 64 65 65 64 64 62 59 48 45 50 50 44 40 39 40 39 40 43 42 42 43 45 46 46 48 49 53 58 58 60 63 57 54 53 52 53 53
44 47 52 57 59 60 62 64 63 62 62 60 55 48 47 45 50 49 40 37 39 39 40 43 44 45 43 43 44 45 44 46 48 54 57 62 61 58 52 49 47 47 47
44 48 51 54 57 58 59 59 60 61 60 58 55 50 47 49 49 46 41 38 38 40 41 44 44 45 43 42 41 43 41 41 44 51 53 59 59 55 51 48 46 44 43
41 43 46 47 49 51 53 53 54 55 56 55 52 48 45 45 45 45 42 40 40 41 41 43 43 41 39 37 37 40 39 37 39 46 50 55 52 51 49 47 45 44 41
33 34 35 36 39 42 44 46 46 47 47 46 45 42 41 40 42 42 42 42 43 42 40 39 40 39 36 34 34 34 32 30 32 41 43 45 44 44 44 44 44 42 39
27 28 30 32 33 35 38 40 41 40 38 38 38 38 38 39 41 42 43 43 42 40 38 37 38 37 34 33 32 31 30 25 24 36 39 34 33 35 37 40 41 41 40
27 28 31 33 34 34 36 36 35 35 35 35 36 37 38 39 40 41 40 40 40 39 37 37 36 36 34 32 31 29 28 25 16 30 32 26 27 30 33 35 37 37 37
Wind_Direction_500mb
193 192 192 197 197 206 214 322 337 338 337 332 325 323 323 325 324 325 326 327 327 327 326 324 321 318 316 312 309 303 297 291 284 291 288 289 289 290 292 292 289 289 288
203 203 203 207 213 223 252 292 317 328 329 325 320 317 316 318 320 321 322 323 323 323 322 320 318 316 312 310 307 302 297 292 287 289 294 292 290 290 290 290 292 287 286
211 210 213 216 227 240 256 275 294 309 317 319 317 315 315 319 321 321 323 323 322 322 321 320 318 315 312 308 305 301 297 293 288 285 292 294 293 293 295 290 290 292 291
216 217 220 226 237 248 259 269 279 295 306 311 314 316 315 317 317 318 319 319 320 320 319 317 314 312 309 307 304 300 298 295 294 290 290 294 296 295 293 297 297 296 294
221 223 227 233 243 253 262 268 276 286 295 301 309 313 311 311 312 314 317 318 319 318 316 314 312 310 309 308 305 301 296 292 292 292 291 293 295 299 294 286 284 285 282
226 227 230 239 249 258 264 270 277 281 285 290 301 308 307 307 310 314 317 319 319 318 316 313 312 311 310 307 303 295 292 292 292 288 287 290 295 294 293 291 291 289 291
229 229 235 245 254 261 266 270 272 272 276 285 297 307 308 308 310 313 316 318 318 317 314 312 311 312 312 309 304 299 295 292 288 290 289 288 291 291 291 291 290 289 290
230 232 239 249 258 265 268 269 266 267 273 284 296 305 308 305 306 310 314 316 315 313 311 311 311 314 311 307 305 306 305 299 296 289 285 290 290 293 292 294 293 294 294
232 237 245 256 263 267 267 266 263 266 274 284 294 301 302 300 303 308 313 314 313 312 313 313 316 314 311 307 307 304 301 301 305 303 289 285 284 282 280 284 282 284 285
240 246 255 261 265 267 266 264 264 270 278 285 293 299 297 297 302 309 314 314 312 309 311 316 315 309 309 306 302 302 301 301 306 308 304 300 299 291 283 275 278 278 280
243 250 250 256 264 269 267 265 267 273 279 284 293 294 292 296 302 308 311 310 309 310 311 311 313 312 311 307 302 295 295 299 297 294 293 293 286 285 285 283 281 279 278
251 254 256 258 259 263 265 266 269 274 279 285 291 290 289 293 300 305 308 308 307 307 309 310 310 311 308 310 308 307 304 299 294 299 302 302 300 291 287 284 282 277 276
258 260 260 259 259 264 266 268 272 276 279 285 287 286 287 291 296 301 302 306 310 308 305 302 308 317 317 318 318 314 312 312 309 307 305 303 302 299 297 296 290 287 281
262 260 259 257 259 264 266 267 269 272 279 283 282 282 284 288 294 297 307 321 315 313 305 308 316 319 321 324 327 327 325 322 318 314 310 310 312 311 311 310 302 299 295
260 258 255 254 259 262 265 268 270 271 274 275 275 275 279 284 289 299 304 304 312 298 301 312 319 323 326 331 336 339 341 337 328 320 317 319 319 320 319 319 313 304 293
255 254 255 258 261 262 265 268 269 272 274 272 270 273 277 283 285 290 292 298 291 290 302 312 319 321 326 331 336 339 344 344 340 331 326 326 324 322 320 316 309 302 296
252 254 256 260 263 265 267 269 272 272 270 270 269 271 271 271 277 281 286 288 283 295 300 308 313 318 323 327 332 336 339 343 342 341 336 335 333 327 323 319 316 309 305
254 258 262 265 267 270 272 273 274 273 270 266 267 270 271 271 272 276 276 276 287 290 295 301 308 313 318 322 327 333 335 340 344 343 343 345 340 333 326 323 319 313 310
264 267 269 270 272 273 273 273 272 271 272 273 266 262 266 267 268 270 266 275 278 285 291 296 302 308 314 317 322 327 332 337 343 345 347 346 341 335 329 326 324 322 320
270 270 271 271 271 272 273 272 272 272 271 270 270 269 260 261 264 264 263 265 271 279 287 294 300 305 310 313 317 321 327 335 340 344 347 345 340 336 334 331 329 326 324
278 280 280 279 280 278 276 275 274 273 272 271 270 268 266 259 257 260 260 260 267 275 283 289 296 301 306 309 314 318 323 331 337 342 346 346 342 340 340 336 333 331 329
292 291 289 287 285 282 279 276 274 273 271 269 268 263 260 256 260 263 265 266 270 278 285 290 295 298 303 306 311 314 318 328 334 340 343 346 344 343 344 342 340 339 338
301 300 299 296 293 288 284 281 278 276 274 272 269 264 258 255 256 260 265 269 274 280 285 289 293 296 299 303 306 310 314 326 331 336 344 341 344 347 350 349 347 346 345
304 308 310 309 304 298 294 290 286 283 277 272 268 264 259 256 256 261 266 272 276 280 283 285 288 292 296 298 299 301 305 317 326 334 342 335 344 351 356 359 2 1 359
310 311 311 311 310 307 302 298 293 285 279 274 270 267 264 262 262 265 270 273 276 278 280 282 283 286 289 292 295 299 300 304 318 334 335 332 343 351 359 3 6 11 14
307 308 308 306 305 304 303 300 296 291 285 279 274 271 269 268 268 270 271 274 276 278 281 281 281 281 283 285 288 293 301 299 300 333 325 332 344 352 0 6 9 12 15
Wind_Speed_850mb
31 27 21 17 13 9 4 2 7 11 16 21 25 28 32 34 38 40 44 48 52 55 58 62 65 67 68 67 65 62 59 50 63 95 79 73 83 86 94 94 94 95 96
34 31 26 21 16 10 7 6 10 16 21 26 31 33 34 37 40 45 48 52 57 61 65 67 69 70 71 70 66 66 62 55 58 80 96 75 66 70 80 85 93 94 94
41 36 32 25 18 16 15 14 16 19 24 29 33 36 37 41 44 49 54 59 63 66 68 70 72 73 74 72 71 71 68 65 57 67 98 79 70 65 70 69 74 82 90
45 42 36 29 25 23 24 23 23 24 28 33 37 41 43 44 48 52 57 62 63 66 68 71 74 75 75 75 77 74 66 63 59 63 76 84 67 63 62 68 74 61 64
50 47 39 33 32 33 33 33 32 32 35 38 41 44 45 46 49 54 57 61 65 69 71 72 74 77 80 77 70 64 58 62 64 69 77 74 69 58 58 62 72 79 82
55 50 43 41 40 40 42 41 41 40 41 40 42 47 49 49 52 55 59 64 68 72 76 76 75 74 72 71 65 54 53 60 67 71 77 76 69 61 62 64 67 72 79
55 51 49 47 48 49 50 50 49 46 45 43 45 50 53 54 56 58 62 68 72 73 76 76 75 70 67 64 60 54 53 53 55 63 74 72 72 61 62 67 64 64 73
53 53 51 54 55 58 59 57 56 51 48 45 47 53 59 56 58 60 65 69 70 71 71 70 69 67 61 57 59 61 62 64 65 67 67 71 70 69 70 76 77 79 78
52 53 53 54 58 61 62 60 59 55 51 47 49 55 59 58 58 60 64 66 67 68 68 67 62 61 59 57 65 75 76 77 78 83 76 74 72 70 67 71 77 73 79
49 46 46 48 50 56 61 61 59 55 52 50 54 60 59 56 57 60 61 61 65 65 62 60 55 56 59 61 66 75 89 81 70 75 81 80 78 73 65 66 71 79 78
43 45 47 48 47 52 58 59 56 54 54 56 61 61 56 55 56 59 56 55 53 54 52 56 57 56 60 64 65 73 79 77 76 78 77 74 73 72 68 63 64 69 77
47 50 53 56 56 57 56 55 55 55 56 58 62 62 55 54 56 55 52 50 44 47 51 57 57 58 67 66 65 63 60 61 69 69 66 66 55 54 57 57 59 64 72
55 58 59 59 59 58 56 56 56 58 60 63 62 59 56 56 56 50 46 43 43 39 50 51 63 68 67 65 59 59 59 56 53 56 58 58 53 55 59 63 61 60 61
62 62 61 60 59 57 57 58 58 59 61 63 62 58 57 58 56 49 42 42 38 43 56 70 61 61 59 58 54 50 49 47 47 48 49 53 55 56 56 52 53 52 52
58 57 57 57 56 57 58 58 59 60 62 62 59 57 57 57 50 43 34 37 40 50 56 55 55 56 56 53 52 51 50 49 46 45 49 52 53 53 55 50 53 55 61
51 51 53 54 55 56 59 61 62 64 64 62 58 55 52 54 46 41 32 34 43 56 50 50 50 51 51 52 53 54 54 54 52 52 50 49 52 53 55 53 48 53 60
47 49 52 53 55 57 59 62 64 61 60 60 58 57 54 52 49 36 33 31 47 40 42 44 45 45 47 48 50 51 54 55 56 54 51 52 53 53 54 56 52 53 60
45 49 52 55 58 61 62 64 64 64 61 58 56 57 53 51 48 44 31 39 39 37 37 40 42 42 43 45 47 50 52 53 56 57 54 56 58 56 57 57 54 53 55
47 50 54 58 61 63 64 64 64 64 64 64 53 51 53 53 53 45 42 40 39 39 38 38 39 41 42 45 46 46 49 52 55 60 58 61 63 58 57 54 54 55 55
46 51 55 58 60 62 64 65 65 64 64 62 59 48 45 50 50 44 40 39 40 39 40 43 42 42 43 45 46 46 48 49 53 58 58 60 63 57 54 53 52 53 53
44 47 52 57 59 60 62 64 63 62 62 60 55 48 47 45 50 49 40 37 39 39 40 43 44 45 43 43 44 45 44 46 48 54 57 62 61 58 52 49 47 47 47
44 48 51 54 57 58 59 59 60 61 60 58 55 50 47 49 49 46 41 38 38 40 41 44 44 45 43 42 41 43 41 41 44 51 53 59 59 55 51 48 46 44 43
41 43 46 47 49 51 53 53 54 55 56 55 52 48 45 45 45 45 42 40 40 41 41 43 43 41 39 37 37 40 39 37 39 46 50 55 52 51 49 47 45 44 41
33 34 35 36 39 42 44 46 46 47 47 46 45 42 41 40 42 42 42 42 43 42 40 39 40 39 36 34 34 34 32 30 32 41 43 45 44 44 44 44 44 42 39
27 28 30 32 33 35 38 40 41 40 38 38 38 38 38 39 41 42 43 43 42 40 38 37 38 37 34 33 32 31 30 25 24 36 39 34 33 35 37 40 41 41 40
27 28 31 33 34 34 36 36 35 35 35 35 36 37 38 39 40 41 40 40 40 39 37 37 36 36 34 32 31 29 28 25 16 30 32 26 27 30 33 35 37 37 37
Wind_Direction_850mb
193 192 192 197 197 206 214 322 337 338 337 332 325 323 323 325 324 325 326 327 327 327 326 324 321 318 316 312 309 303 297 291 284 291 288 289 289 290 292 292 289 289 288
203 203 203 207 213 223 252 292 317 328 329 325 320 317 316 318 320 321 322 323 323 323 322 320 318 316 312 310 307 302 297 292 287 289 294 292 290 290 290 290 292 287 286
211 210 213 216 227 240 256 275 294 309 317 319 317 315 315 319 321 321 323 323 322 322 321 320 318 315 312 308 305 301 297 293 288 285 292 294 293 293 295 290 290 292 291
216 217 220 226 237 248 259 269 279 295 306 311 314 316 315 317 317 318 319 319 320 320 319 317 314 312 309 307 304 300 298 295 294 290 290 294 296 295 293 297 297 296 294
221 223 227 233 243 253 262 268 276 286 295 301 309 313 311 311 312 314 317 318 319 318 316 314 312 310 309 308 305 301 296 292 292 292 291 293 295 299 294 286 284 285 282
226 227 230 239 249 258 264 270 277 281 285 290 301 308 307 307 310 314 317 319 319 318 316 313 312 311 310 307 303 295 292 292 292 288 287 290 295 294 293 291 291 289 291
229 229 235 245 254 261 266 270 272 272 276 285 297 307 308 308 310 313 316 318 318 317 314 312 311 312 312 309 304 299 295 292 288 290 289 288 291 291 291 291 290 289 290
230 232 239 249 258 265 268 269 266 267 273 284 296 305 308 305 306 310 314 316 315 313 311 311 311 314 311 307 305 306 305 299 296 289 285 290 290 293 292 294 293 294 294
232 237 245 256 263 267 267 266 263 266 274 284 294 301 302 300 303 308 313 314 313 312 313 313 316 314 311 307 307 304 301 301 305 303 289 285 284 282 280 284 282 284 285
240 246 255 261 265 267 266 264 264 270 278 285 293 299 297 297 302 309 314 314 312 309 311 316 315 309 309 306 302 302 301 301 306 308 304 300 299 291 283 275 278 278 280
243 250 250 256 264 269 267 265 267 273 279 284 293 294 292 296 302 308 311 310 309 310 311 311 313 312 311 307 302 295 295 299 297 294 293 293 286 285 285 283 281 279 278
251 254 256 258 259 263 265 266 269 274 279 285 291 290 289 293 300 305 308 308 307 307 309 310 310 311 308 310 308 307 304 299 294 299 302 302 300 291 287 284 282 277 276
258 260 260 259 259 264 266 268 272 276 279 285 287 286 287 291 296 301 302 306 310 308 305 302 308 317 317 318 318 314 312 312 309 307 305 303 302 299 297 296 290 287 281
262 260 259 257 259 264 266 267 269 272 279 283 282 282 284 288 294 297 307 321 315 313 305 308 316 319 321 324 327 327 325 322 318 314 310 310 312 311 311 310 302 299 295
260 258 255 254 259 262 265 268 270 271 274 275 275 275 279 284 289 299 304 304 312 298 301 312 319 323 326 331 336 339 341 337 328 320 317 319 319 320 319 319 313 304 293
255 254 255 258 261 262 265 268 269 272 274 272 270 273 277 283 285 290 292 298 291 290 302 312 319 321 326 331 336 339 344 344 340 331 326 326 324 322 320 316 309 302 296
252 254 256 260 263 265 267 269 272 272 270 270 269 271 271 271 277 281 286 288 283 295 300 308 313 318 323 327 332 336 339 343 342 341 336 335 333 327 323 319 316 309 305
254 258 262 265 267 270 272 273 274 273 270 266 267 270 271 271 272 276 276 276 287 290 295 301 308 313 318 322 327 333 335 340 344 343 343 345 340 333 326 323 319 313 310
264 267 269 270 272 273 273 273 272 271 272 273 266 262 266 267 268 270 266 275 278 285 291 296 302 308 314 317 322 327 332 337 343 345 347 346 341 335 329 326 324 322 320
270 270 271 271 271 272 273 272 272 272 271 270 270 269 260 261 264 264 263 265 271 279 287 294 300 305 310 313 317 321 327 335 340 344 347 345 340 336 334 331 329 326 324
278 280 280 279 280 278 276 275 274 273 272 271 270 268 266 259 257 260 260 260 267 275 283 289 296 301 306 309 314 318 323 331 337 342 346 346 342 340 340 336 333 331 329
292 291 289 287 285 282 279 276 274 273 271 269 268 263 260 256 260 263 265 266 270 278 285 290 295 298 303 306 311 314 318 328 334 340 343 346 344 343 344 342 340 339 338
301 300 299 296 293 288 284 281 278 276 274 272 269 264 258 255 256 260 265 269 274 280 285 289 293 296 299 303 306 310 314 326 331 336 344 341 344 347 350 349 347 346 345
304 308 310 309 304 298 294 290 286 283 277 272 268 264 259 256 256 261 266 272 276 280 283 285 288 292 296 298 299 301 305 317 326 334 342 335 344 351 356 359 2 1 359
310 311 311 311 310 307 302 298 293 285 279 274 270 267 264 262 262 265 270 273 276 278 280 282 283 286 289 292 295 299 300 304 318 334 335 332 343 351 359 3 6 11 14
307 308 308 306 305 304 303 300 296 291 285 279 274 271 269 268 268 270 271 274 276 278 281 281 281 281 283 285 288 293 301 299 300 333 325 332 344 352 0 6 9 12 15